Temperature
22 22 22 21 20 19 22 23 23 24 23 23 23 22 21 20 21 21 21 21 21 21 20 20 20 20 20 19 19 19 19 19 19 19 19 19 19 19 19 19 19 19 19 19 19 19 19 19 19
23 23 22 22 20 20 22 23 24 24 24 23 23 22 21 19 20 20 20 20 21 21 20 20 20 20 20 20 19 19 19 19 19 19 19 19 19 19 19 19 19 19 19 19 19 19 19 19 19
23 23 23 19 21 21 24 24 24 24 24 24 22 21 21 20 20 20 21 20 20 20 20 20 20 20 20 20 19 19 19 19 19 19 19 19 19 19 19 19 19 19 19 19 19 19 19 19 19
24 23 23 20 23 23 24 24 24 24 24 23 22 21 20 20 21 21 21 21 20 21 20 20 20 20 20 20 19 19 19 19 19 19 19 19 19 19 19 19 19 19 19 19 19 19 18 18 19
24 24 21 21 23 23 24 24 24 24 23 22 22 20 20 20 21 21 21 21 21 21 20 20 20 20 20 20 19 19 19 19 19 19 19 19 19 19 19 19 19 19 19 19 18 18 18 18 18
25 22 20 21 22 23 24 24 24 23 22 22 21 20 20 20 21 21 21 21 21 21 20 20 20 20 20 20 19 19 19 19 19 19 19 19 19 19 19 19 19 19 19 19 18 18 18 18 18
24 20 21 21 22 23 24 24 24 22 22 22 22 20 20 20 21 21 20 20 20 20 20 20 20 20 20 20 19 19 19 19 19 19 19 19 19 19 19 19 19 19 19 18 18 18 18 18 18
25 20 21 21 22 23 23 24 24 23 22 22 22 20 20 20 20 20 20 20 20 20 20 20 20 20 20 20 20 19 19 19 19 19 19 19 19 19 19 19 19 19 19 18 18 18 18 18 18
25 20 21 22 22 22 22 23 23 23 22 21 21 21 21 21 20 20 20 20 20 20 20 20 20 20 20 20 19 19 19 19 19 19 19 19 19 19 19 19 19 19 19 18 18 18 18 18 18
24 21 23 22 22 21 21 21 21 21 21 20 20 20 21 20 20 20 20 20 20 20 20 20 20 20 20 19 19 19 19 19 19 19 19 19 19 19 19 19 19 19 19 18 18 18 18 18 17
23 22 22 22 22 22 21 20 19 19 18 18 18 19 19 19 19 19 19 19 20 20 20 20 20 20 19 19 19 19 19 19 19 19 18 18 18 18 19 19 19 19 19 18 18 18 18 17 17
23 22 22 22 22 21 20 19 18 17 17 17 18 18 18 18 18 18 19 19 19 19 19 19 20 20 19 19 19 19 19 19 19 19 18 18 18 18 18 18 19 19 19 18 18 18 18 17 17
23 22 21 21 20 19 18 18 17 16 16 17 17 18 17 17 17 17 18 18 18 19 19 19 19 19 19 19 19 19 19 19 19 18 18 18 18 18 18 18 19 19 19 18 18 18 18 17 17
23 21 21 20 19 18 17 16 16 15 15 16 16 16 16 16 16 17 17 17 18 18 18 19 19 19 19 19 19 19 19 19 19 19 18 18 18 18 18 18 18 18 18 18 18 18 18 17 17
23 21 20 20 20 19 18 16 15 15 15 15 15 15 15 15 16 16 16 16 17 17 18 18 19 19 19 19 19 19 19 19 19 19 19 18 18 18 18 18 18 18 18 18 18 18 18 18 18
22 21 19 19 18 18 17 14 15 14 14 14 14 14 14 15 15 15 16 16 16 17 17 17 18 18 19 19 19 19 19 19 19 19 19 18 18 18 18 18 18 18 18 18 17 18 17 18 18
20 20 19 18 17 17 15 14 14 14 14 13 13 13 13 14 15 15 15 15 16 16 16 17 17 18 18 18 19 19 19 19 19 19 19 18 18 18 18 18 18 18 18 18 17 17 17 18 18
21 20 18 17 16 15 14 14 14 13 13 13 13 13 13 13 13 14 14 15 15 16 16 16 17 17 17 18 18 19 19 19 19 19 19 18 18 18 18 18 18 18 18 18 18 18 17 18 18
20 19 18 17 16 15 14 13 13 13 13 12 12 12 12 12 13 14 14 14 15 15 16 16 16 17 17 17 18 18 18 19 19 19 19 18 18 18 18 18 18 18 18 18 18 17 17 17 17
18 18 17 16 16 15 13 13 13 13 13 12 12 12 12 12 13 13 14 14 14 15 15 15 16 16 16 17 17 17 18 18 18 18 18 18 18 18 18 18 18 18 18 18 17 17 17 17 17
18 18 17 16 15 14 14 13 12 12 13 13 12 12 12 12 12 12 13 13 13 14 14 14 15 15 16 16 16 17 17 17 17 18 18 18 18 18 18 18 18 17 17 17 17 17 17 17 17
17 18 17 16 14 13 13 13 12 11 11 12 12 12 12 12 12 12 12 13 13 13 13 14 14 14 15 15 15 16 16 16 17 17 17 17 17 17 17 17 17 17 17 17 17 17 16 16 16
17 16 15 15 13 12 12 12 11 10 11 11 12 12 12 12 12 12 12 12 12 13 13 13 13 14 14 14 14 15 15 15 16 16 16 17 17 17 17 17 17 17 17 17 16 16 16 16 16
15 15 14 12 12 12 11 11 11 10 11 11 12 12 12 12 12 12 12 12 12 13 13 13 13 13 13 14 14 14 14 15 15 15 16 16 16 16 16 16 16 16 16 16 16 16 16 16 16
13 13 13 13 11 12 12 11 11 12 12 11 11 12 12 12 12 12 12 12 12 12 12 13 13 13 13 13 14 14 14 14 15 15 15 15 15 15 16 16 16 16 16 16 15 15 15 15 15
13 13 13 13 12 11 11 11 11 12 12 12 12 12 12 12 12 12 12 11 12 12 12 12 12 12 13 13 13 13 14 14 14 14 15 15 15 15 15 15 15 15 15 15 15 15 15 15 15
14 11 12 11 11 11 11 11 12 12 12 12 12 12 12 12 12 12 12 12 12 11 12 12 12 12 12 13 13 13 13 13 14 14 14 14 14 15 15 15 14 14 14 14 14 14 14 14 14
12 11 10 11 11 11 12 11 10 11 11 11 12 12 12 12 12 12 12 12 12 11 11 12 12 12 12 12 13 13 13 13 13 14 14 14 14 14 14 14 14 14 14 14 14 14 14 14 14
13 12 9 9 10 10 11 11 11 11 11 10 11 12 12 12 12 12 12 12 12 11 11 11 12 12 12 12 12 13 13 13 13 13 13 14 14 14 14 14 14 14 14 14 14 14 14 14 14
13 12 10 11 10 9 10 10 12 11 11 11 12 13 13 13 13 12 12 12 12 12 11 12 12 12 12 12 12 12 12 13 13 13 13 13 13 13 13 13 14 14 14 14 14 14 14 14 14
Wind_Speed
2 7 4 4 5 6 4 5 2 2 4 3 4 6 6 4 2 2 3 9 11 10 12 14 14 13 12 12 11 11 12 11 11 11 11 11 11 11 10 10 9 9 9 8 8 8 8 7 7
4 4 3 5 6 5 4 4 2 2 4 4 5 5 6 4 3 5 6 7 12 11 12 13 14 13 12 12 11 11 11 11 10 10 10 10 10 10 9 9 9 8 8 8 7 7 7 7 7
4 2 4 5 5 4 1 2 1 3 4 3 4 5 4 3 5 5 6 11 11 10 12 13 15 13 12 12 11 11 11 10 10 10 9 9 9 9 9 8 8 8 7 7 6 6 6 6 6
4 4 5 6 4 2 3 2 3 4 4 5 4 5 4 3 5 6 11 12 11 8 11 13 15 13 12 12 11 11 11 10 10 10 9 9 8 8 8 7 7 7 6 6 5 5 5 5 5
4 5 7 5 4 4 2 0 1 3 3 4 4 5 4 4 7 12 13 11 11 8 10 13 14 14 13 12 12 11 11 10 10 9 9 8 8 7 7 6 6 6 5 5 4 4 4 4 4
4 5 6 4 6 5 5 4 3 4 4 4 4 4 3 2 7 10 10 9 8 8 9 11 14 14 13 13 12 12 11 11 10 9 9 8 8 7 7 6 5 5 4 4 3 3 4 4 4
4 5 4 2 4 6 6 5 4 4 4 2 3 4 2 1 4 9 8 7 6 6 7 8 11 13 13 13 13 12 12 11 10 10 9 8 7 7 6 5 5 4 3 3 2 3 3 3 4
4 5 4 3 3 4 8 4 4 4 3 3 4 5 3 3 5 7 7 6 5 5 5 6 8 10 11 12 13 13 13 12 11 10 10 9 8 7 7 6 5 4 3 2 1 2 2 3 4
4 5 3 1 1 3 7 5 5 6 6 6 5 2 1 8 9 7 5 3 3 5 4 4 5 7 9 10 12 13 13 13 12 11 11 9 7 6 6 6 5 5 4 3 1 0 2 3 4
5 4 2 2 2 3 8 9 8 8 10 9 9 10 9 10 8 6 4 3 5 6 5 5 5 6 7 9 10 10 11 11 11 10 9 9 8 7 6 6 7 6 5 4 2 1 2 3 3
4 4 1 2 3 4 8 13 14 8 10 9 7 9 10 9 7 4 1 2 4 4 5 6 6 6 7 6 7 7 8 9 9 10 10 9 8 7 6 5 6 5 5 3 2 2 1 1 1
4 5 4 5 7 8 8 7 12 19 10 10 12 12 13 11 9 8 6 5 4 4 4 5 5 5 7 8 6 6 6 6 7 10 12 9 6 5 5 5 5 5 4 3 3 2 2 2 2
4 5 8 12 18 17 19 15 12 16 13 14 18 19 17 14 12 10 10 9 9 7 6 5 4 6 5 6 5 6 7 7 9 11 12 12 6 4 5 5 6 6 6 5 4 3 3 3 3
5 8 9 10 12 11 19 14 9 12 13 17 19 17 15 15 15 14 14 13 11 10 8 6 5 6 5 6 7 6 8 9 10 11 13 14 11 7 5 4 5 6 7 7 5 4 3 2 2
6 8 9 8 5 4 10 15 12 12 12 16 16 15 15 15 15 14 13 12 11 10 9 8 6 3 4 7 8 7 8 9 9 11 14 15 14 10 7 5 5 6 8 7 5 4 3 2 2
5 6 5 7 8 7 10 8 11 11 12 15 14 13 13 13 13 13 13 12 12 11 10 9 8 7 5 5 6 6 7 9 9 11 12 15 16 14 9 6 6 7 7 5 3 3 2 2 2
7 4 4 5 11 7 9 7 9 10 12 14 13 12 12 13 14 14 13 12 11 11 10 10 9 9 7 6 6 6 6 7 9 10 10 12 15 15 10 7 6 8 5 4 5 3 3 3 3
1 4 4 5 7 13 13 10 9 11 13 13 13 13 13 14 14 13 13 12 11 10 10 9 9 9 8 6 5 4 5 6 7 7 9 11 11 13 10 6 7 6 5 5 4 4 3 3 4
5 6 6 4 5 8 11 10 8 10 14 15 15 14 13 12 11 11 12 12 11 11 11 10 10 9 8 5 4 4 4 5 5 6 8 11 11 11 9 7 6 6 6 6 6 4 4 2 3
7 7 5 5 6 6 8 8 6 8 11 11 12 12 12 14 15 15 14 13 12 12 11 10 9 9 8 6 5 4 4 4 4 4 6 9 10 11 10 9 7 6 6 6 6 5 4 3 3
5 4 3 4 4 5 3 4 6 5 6 10 11 11 11 14 15 15 15 13 13 13 12 11 10 9 9 8 5 4 3 3 2 3 4 5 7 8 8 8 7 6 6 6 6 6 6 4 3
2 3 1 5 6 3 3 0 5 7 8 13 14 13 13 14 14 13 14 14 14 13 11 10 10 9 9 8 6 5 4 4 3 3 3 3 4 6 6 6 7 7 6 6 6 6 4 5 4
2 4 3 4 6 5 7 3 5 7 9 13 13 13 13 13 14 14 13 12 12 11 11 10 9 9 9 8 7 6 5 4 3 2 2 2 2 3 5 5 6 7 6 7 7 6 6 5 5
2 4 7 6 5 5 5 3 5 6 9 12 12 13 13 13 14 13 12 11 11 11 10 10 10 9 9 9 8 7 7 5 4 3 2 2 1 2 4 4 5 5 6 7 8 8 8 7 6
8 6 4 5 6 2 3 3 3 6 7 8 11 12 12 12 12 13 14 13 13 13 12 11 11 10 10 9 8 8 7 5 4 3 1 1 1 1 3 3 4 4 4 5 6 6 6 6 6
4 5 5 3 2 1 3 2 4 6 7 8 8 9 11 12 12 12 12 12 12 13 13 12 11 10 10 9 9 8 7 5 4 3 2 1 0 1 2 3 3 3 4 4 5 5 5 5 6
4 4 3 6 3 2 2 3 5 4 8 9 10 11 12 12 12 12 12 12 12 12 12 12 11 10 10 10 9 8 9 7 6 5 3 2 2 1 1 2 2 2 3 3 4 4 4 4 5
6 5 5 5 3 1 3 3 4 8 10 11 12 12 12 12 11 11 11 11 11 11 10 11 11 10 10 10 9 9 9 9 8 7 6 5 4 3 2 3 3 2 2 2 3 3 3 3 3
5 5 6 5 4 4 0 4 4 6 7 9 10 11 11 11 10 10 10 10 10 10 10 11 11 10 10 10 9 10 10 10 9 8 8 6 5 5 4 4 3 3 3 2 2 2 3 3 3
4 3 4 4 2 3 3 5 5 5 7 7 9 9 9 10 9 8 9 9 9 10 10 10 10 10 10 10 9 9 10 10 10 10 9 8 7 6 5 5 4 3 3 3 2 2 3 3 3
Wind_Direction
150 125 107 69 54 49 30 340 311 25 51 43 64 82 98 103 152 171 123 139 137 143 152 152 150 147 146 142 137 133 129 127 125 124 124 125 126 127 127 127 125 124 122 121 120 120 120 116 111
140 131 79 62 77 63 344 317 357 30 128 129 70 74 72 64 69 107 132 144 141 144 147 151 153 152 151 148 144 140 136 134 131 128 125 125 125 125 126 126 124 122 120 120 120 120 120 116 109
154 123 83 67 83 135 186 282 107 72 89 85 71 62 76 94 125 142 153 145 142 144 146 156 157 158 157 154 152 148 144 141 137 133 129 127 127 127 127 126 124 122 120 120 119 119 120 118 111
121 56 54 64 52 250 235 226 156 119 68 54 81 61 55 83 145 144 139 146 145 143 150 162 162 163 163 161 161 158 153 151 147 143 140 136 133 130 130 129 128 126 123 122 119 117 118 115 109
69 76 55 43 3 331 338 294 119 92 61 47 73 75 37 16 109 129 142 150 151 149 156 168 168 170 171 169 168 167 164 161 158 156 151 149 145 141 138 137 135 134 130 123 118 114 112 108 99
59 64 67 29 347 353 17 10 56 77 79 71 76 79 31 79 121 140 146 149 152 155 160 173 177 178 180 179 177 176 175 173 172 170 166 162 158 153 149 144 141 140 136 128 111 102 105 97 91
92 80 88 49 356 13 3 1 55 75 82 90 96 84 47 129 144 138 137 136 144 156 162 177 183 186 188 188 187 187 186 185 184 183 180 175 172 169 165 161 159 155 147 137 111 86 85 81 78
107 94 74 44 34 1 335 7 59 53 67 73 76 115 179 200 132 117 113 120 141 162 175 184 190 191 194 196 197 197 197 196 194 192 191 189 187 187 185 182 182 182 177 168 135 76 61 64 61
81 73 92 162 101 357 350 28 37 49 66 51 48 72 155 124 113 104 101 112 162 193 201 197 199 199 199 202 208 206 206 205 204 202 201 198 196 199 203 202 206 211 209 204 196 80 39 52 48
69 104 165 164 134 79 41 39 21 39 38 24 26 37 74 100 107 114 132 172 201 215 215 211 208 206 203 210 215 213 211 210 208 204 204 197 195 203 213 221 226 228 229 232 237 271 20 48 43
74 124 127 76 96 68 63 54 37 48 32 6 14 48 65 71 65 53 12 259 239 237 228 220 215 210 207 217 218 213 211 208 206 205 203 198 199 209 219 225 243 252 250 250 271 316 9 35 11
78 55 63 50 67 57 60 58 52 45 30 24 49 57 57 54 42 27 11 350 328 301 268 247 225 215 215 218 224 216 212 210 207 207 204 197 199 209 215 220 230 240 243 239 250 262 280 282 274
77 85 72 77 80 79 74 64 66 37 32 43 51 49 44 41 32 23 19 13 5 350 326 289 246 228 223 220 225 220 215 216 214 211 208 204 203 209 215 224 226 229 229 227 237 250 267 279 278
89 94 83 71 80 77 75 55 47 23 27 44 47 44 38 35 28 24 19 14 6 357 346 328 282 241 230 231 231 228 221 218 214 212 212 210 211 211 212 221 223 224 221 221 224 236 247 263 262
101 98 72 39 54 99 81 49 30 18 30 42 40 37 34 30 26 21 12 4 357 351 348 347 335 307 256 243 240 238 229 221 218 217 213 211 212 213 212 214 223 225 218 213 221 234 230 237 233
62 71 64 30 22 46 78 62 19 18 35 38 32 29 27 23 21 14 8 2 357 352 349 346 348 344 314 277 256 242 233 223 223 219 212 211 213 212 209 211 224 223 206 193 198 204 202 213 206
39 68 64 36 21 53 78 78 29 22 38 36 27 20 18 14 13 7 1 357 354 350 346 345 347 345 328 301 273 251 238 230 225 219 212 212 212 211 206 211 221 211 190 189 201 187 183 193 196
64 86 73 66 48 73 86 82 46 29 35 32 23 16 12 8 2 356 354 352 349 345 343 343 344 344 336 319 297 270 249 238 227 220 216 209 208 208 204 209 213 202 192 194 188 182 180 184 179
99 99 94 91 108 77 86 81 47 30 31 25 17 11 5 358 350 351 351 351 350 348 348 344 342 339 339 335 321 294 266 252 235 222 212 203 198 197 198 208 204 196 198 199 185 168 167 166 141
83 90 83 86 100 101 105 83 48 31 30 19 10 2 357 352 352 352 351 352 351 347 345 340 338 334 332 324 306 283 274 267 252 237 220 208 201 196 199 197 195 191 193 189 182 165 158 163 158
60 99 141 138 92 88 116 64 20 6 8 11 11 1 358 354 348 345 347 346 346 346 343 337 332 332 330 328 317 308 295 285 270 247 229 215 202 199 195 188 186 185 188 191 189 179 166 172 182
14 355 174 149 123 72 9 150 357 338 349 2 1 356 353 349 345 343 343 343 343 341 339 335 331 331 334 334 331 320 305 291 280 271 251 225 199 193 189 185 182 182 182 184 190 183 177 166 179
327 6 66 109 112 76 23 60 330 339 353 348 346 348 347 345 344 342 339 338 337 339 341 340 335 339 341 343 341 331 315 297 295 278 251 233 209 187 177 182 180 184 185 185 185 182 182 184 181
3 70 60 57 72 57 349 40 341 341 329 328 333 338 339 340 342 341 341 342 342 343 344 346 347 346 347 348 351 347 338 332 333 317 268 229 197 176 172 179 185 189 191 191 192 188 189 192 186
41 73 44 23 33 17 338 63 311 299 312 316 321 326 332 337 342 342 346 348 348 350 351 351 351 351 351 352 355 353 348 346 349 337 298 231 188 191 187 179 183 185 190 190 185 186 192 189 186
41 88 127 149 161 303 7 5 280 286 307 316 320 325 339 342 342 344 347 350 351 354 355 356 355 355 355 359 359 1 1 359 353 352 354 13 128 179 179 166 166 173 176 176 172 177 185 183 190
68 63 119 118 108 70 344 318 311 324 336 339 341 344 345 342 343 347 349 351 352 354 356 358 358 2 2 4 5 10 10 10 10 11 22 32 35 64 113 144 150 157 163 163 160 169 177 178 189
91 113 82 85 112 51 333 330 307 317 326 332 336 338 336 340 344 347 348 348 350 352 352 359 3 6 5 8 13 16 12 14 18 25 29 34 38 45 78 100 117 128 127 143 147 156 167 176 189
25 59 82 86 109 133 347 297 250 274 297 312 318 323 327 332 336 339 343 346 351 355 360 4 6 9 9 9 10 14 14 15 22 27 27 28 32 38 44 62 89 99 101 107 132 158 170 177 188
92 92 128 122 106 113 139 274 280 282 294 301 309 316 324 329 334 337 341 346 352 357 360 2 5 8 7 9 13 16 17 19 22 22 21 24 29 31 38 44 58 70 75 82 100 121 128 144 165
Height
1509 1508 1509 1510 1513 1524 1526 1520 1514 1512 1512 1513 1513 1514 1516 1519 1523 1526 1523 1524 1527 1530 1533 1536 1538 1540 1542 1544 1545 1546 1547 1548 1549 1550 1550 1551 1551 1552 1553 1553 1554 1554 1555 1555 1556 1557 1557 1558 1558
1509 1509 1511 1511 1522 1537 1530 1518 1515 1513 1513 1514 1515 1516 1517 1519 1520 1520 1521 1525 1528 1531 1534 1537 1539 1541 1543 1544 1546 1547 1548 1549 1550 1550 1551 1552 1552 1553 1553 1554 1554 1555 1555 1556 1556 1557 1558 1558 1559
1509 1510 1512 1514 1526 1533 1526 1516 1514 1513 1514 1514 1516 1518 1519 1521 1521 1522 1523 1526 1530 1533 1536 1538 1540 1542 1544 1545 1546 1547 1548 1549 1550 1551 1552 1552 1553 1553 1554 1554 1554 1555 1556 1556 1557 1557 1558 1559 1559
1510 1511 1513 1520 1526 1523 1519 1515 1514 1514 1515 1516 1517 1520 1522 1524 1523 1524 1526 1528 1531 1534 1537 1539 1541 1543 1544 1546 1547 1548 1549 1550 1551 1551 1552 1552 1553 1553 1554 1554 1555 1555 1556 1556 1557 1557 1558 1559 1560
1510 1511 1520 1529 1526 1519 1516 1515 1515 1515 1517 1518 1519 1522 1524 1525 1526 1527 1529 1530 1533 1535 1538 1540 1542 1544 1545 1546 1547 1548 1549 1550 1551 1552 1552 1553 1553 1553 1554 1554 1555 1555 1556 1556 1557 1558 1558 1559 1560
1511 1513 1531 1537 1529 1520 1518 1517 1517 1518 1519 1520 1521 1523 1526 1527 1528 1530 1531 1533 1535 1537 1539 1541 1543 1544 1545 1547 1548 1549 1549 1550 1551 1552 1552 1553 1553 1553 1554 1554 1554 1555 1556 1557 1557 1558 1559 1559 1560
1513 1520 1532 1534 1532 1525 1521 1519 1520 1521 1522 1523 1524 1526 1528 1529 1531 1532 1533 1535 1537 1539 1540 1542 1543 1544 1546 1547 1548 1548 1549 1550 1551 1551 1552 1552 1553 1553 1553 1554 1554 1555 1556 1556 1557 1558 1559 1559 1560
1513 1519 1530 1534 1532 1530 1524 1522 1523 1524 1525 1526 1526 1527 1529 1531 1532 1534 1535 1536 1538 1540 1541 1542 1544 1545 1546 1547 1547 1548 1549 1549 1550 1551 1551 1552 1552 1553 1553 1554 1554 1555 1555 1556 1557 1558 1558 1559 1560
1515 1525 1534 1532 1531 1530 1525 1524 1526 1527 1528 1529 1530 1530 1531 1532 1533 1535 1536 1538 1539 1540 1541 1542 1543 1544 1545 1546 1547 1547 1548 1549 1549 1550 1551 1551 1552 1552 1553 1553 1553 1554 1555 1556 1557 1557 1558 1559 1560
1516 1530 1529 1527 1527 1529 1528 1529 1530 1531 1531 1533 1533 1533 1533 1534 1535 1536 1538 1538 1539 1540 1541 1542 1543 1544 1545 1545 1546 1546 1547 1548 1548 1549 1550 1550 1551 1551 1552 1552 1553 1553 1554 1555 1556 1557 1558 1559 1560
1518 1525 1525 1527 1528 1529 1531 1535 1536 1536 1540 1541 1539 1537 1537 1537 1538 1539 1539 1540 1541 1541 1542 1542 1542 1543 1543 1544 1544 1545 1546 1546 1547 1548 1549 1549 1550 1550 1551 1551 1552 1552 1553 1555 1556 1557 1558 1559 1560
1522 1526 1526 1529 1529 1531 1534 1539 1542 1545 1549 1546 1542 1540 1540 1540 1540 1540 1540 1541 1541 1541 1541 1541 1541 1542 1542 1543 1543 1543 1544 1545 1545 1546 1547 1548 1548 1549 1550 1550 1551 1552 1553 1554 1555 1557 1558 1559 1560
1524 1529 1531 1533 1534 1537 1538 1543 1547 1553 1551 1548 1543 1542 1542 1542 1542 1542 1541 1540 1539 1539 1539 1539 1539 1540 1540 1541 1541 1541 1542 1542 1543 1544 1545 1546 1547 1548 1549 1549 1550 1551 1552 1553 1555 1556 1558 1559 1560
1527 1530 1533 1536 1537 1541 1542 1549 1552 1557 1555 1549 1546 1546 1546 1545 1544 1542 1540 1539 1538 1537 1537 1536 1536 1537 1538 1538 1538 1539 1539 1540 1540 1541 1542 1543 1545 1546 1547 1548 1549 1550 1551 1552 1554 1555 1557 1558 1559
1527 1532 1536 1540 1540 1544 1543 1557 1562 1562 1558 1553 1551 1550 1549 1547 1545 1543 1541 1540 1538 1536 1535 1534 1533 1533 1534 1534 1534 1535 1536 1537 1537 1538 1539 1540 1542 1543 1545 1546 1547 1548 1550 1551 1553 1554 1556 1557 1558
1529 1536 1545 1546 1545 1546 1551 1570 1568 1565 1561 1557 1555 1553 1551 1549 1547 1545 1542 1540 1537 1535 1533 1532 1530 1529 1529 1529 1530 1530 1532 1533 1533 1534 1535 1537 1538 1540 1542 1543 1544 1546 1548 1549 1551 1552 1554 1555 1556
1540 1547 1550 1552 1551 1550 1557 1570 1571 1567 1563 1560 1558 1555 1553 1550 1547 1545 1543 1540 1537 1534 1532 1530 1528 1526 1525 1525 1525 1525 1526 1527 1528 1530 1531 1532 1534 1536 1538 1539 1541 1543 1545 1547 1548 1550 1551 1553 1554
1547 1549 1553 1558 1560 1558 1564 1571 1572 1569 1566 1563 1561 1557 1554 1551 1549 1546 1543 1539 1536 1533 1530 1527 1525 1523 1522 1521 1520 1520 1521 1521 1522 1524 1525 1527 1529 1532 1533 1535 1538 1539 1541 1543 1545 1547 1549 1550 1552
1544 1550 1556 1559 1561 1565 1570 1573 1573 1571 1567 1565 1563 1560 1556 1554 1550 1546 1542 1538 1535 1531 1528 1525 1523 1521 1519 1517 1516 1515 1515 1516 1517 1518 1519 1522 1524 1526 1528 1530 1533 1535 1536 1539 1541 1543 1545 1547 1549
1548 1555 1560 1562 1562 1567 1573 1575 1574 1572 1570 1569 1566 1562 1558 1553 1549 1545 1541 1537 1533 1529 1526 1524 1521 1519 1516 1514 1512 1511 1510 1510 1511 1512 1513 1516 1519 1521 1523 1525 1527 1529 1532 1534 1536 1539 1541 1543 1545
1553 1556 1559 1562 1566 1568 1572 1577 1577 1574 1572 1569 1566 1563 1559 1555 1550 1545 1540 1536 1532 1528 1524 1521 1519 1516 1513 1511 1509 1507 1506 1505 1506 1507 1508 1510 1513 1515 1518 1520 1522 1524 1527 1529 1532 1534 1536 1538 1541
1558 1554 1555 1559 1569 1578 1576 1583 1581 1576 1573 1569 1566 1563 1559 1555 1551 1546 1541 1536 1531 1527 1523 1520 1517 1514 1511 1509 1506 1504 1503 1502 1502 1503 1503 1505 1507 1510 1512 1514 1517 1519 1521 1524 1527 1529 1532 1534 1536
1556 1555 1556 1561 1570 1581 1583 1586 1587 1579 1576 1572 1568 1564 1560 1556 1551 1546 1542 1537 1532 1527 1523 1519 1516 1513 1510 1507 1504 1502 1500 1499 1499 1499 1499 1501 1502 1505 1507 1510 1512 1514 1516 1519 1521 1523 1526 1529 1531
1556 1558 1562 1569 1576 1590 1590 1590 1591 1585 1581 1575 1569 1565 1561 1556 1551 1546 1541 1536 1532 1527 1523 1519 1515 1512 1509 1506 1503 1501 1499 1498 1497 1497 1497 1498 1499 1501 1503 1505 1507 1509 1511 1513 1515 1518 1521 1523 1526
1561 1569 1580 1582 1593 1594 1589 1590 1591 1582 1578 1575 1571 1566 1562 1557 1552 1547 1541 1536 1532 1527 1523 1519 1515 1512 1509 1506 1503 1501 1499 1497 1495 1495 1495 1495 1496 1498 1500 1502 1504 1505 1507 1509 1511 1513 1516 1518 1521
1568 1572 1585 1589 1595 1596 1590 1592 1588 1580 1577 1574 1571 1567 1562 1557 1553 1548 1542 1537 1533 1528 1524 1519 1516 1513 1509 1507 1504 1501 1499 1497 1495 1494 1493 1494 1495 1496 1498 1499 1501 1502 1503 1505 1507 1509 1511 1514 1516
1568 1577 1577 1588 1593 1597 1594 1590 1584 1579 1576 1573 1570 1566 1562 1558 1554 1549 1544 1539 1534 1530 1525 1521 1517 1514 1511 1508 1505 1502 1500 1497 1495 1494 1493 1493 1494 1495 1496 1497 1499 1500 1502 1503 1504 1506 1508 1510 1513
1571 1575 1582 1589 1596 1599 1595 1594 1593 1583 1578 1574 1570 1567 1563 1559 1555 1551 1546 1541 1537 1533 1528 1524 1519 1516 1513 1510 1507 1504 1502 1499 1497 1496 1495 1494 1495 1495 1496 1497 1498 1499 1500 1502 1503 1504 1506 1508 1510
1574 1578 1586 1594 1595 1600 1601 1599 1585 1582 1578 1575 1572 1568 1565 1561 1557 1553 1549 1545 1540 1535 1531 1526 1522 1519 1515 1512 1510 1507 1504 1502 1500 1498 1497 1496 1496 1496 1497 1497 1498 1499 1500 1501 1502 1503 1505 1507 1509
1573 1578 1583 1591 1598 1600 1602 1601 1579 1579 1576 1574 1572 1569 1566 1562 1559 1555 1551 1547 1542 1538 1533 1529 1525 1522 1518 1515 1512 1510 1507 1505 1503 1501 1500 1499 1499 1498 1498 1498 1499 1499 1500 1501 1502 1503 1505 1506 1507